Retour au catalogue

THORAD AGENA D DEB

ActifLEO
NORAD 4686·DEBRIS·🇺🇸 United States

Lancé Apr 8, 1970 depuis Vandenberg Space Force Base

Loading…

Prochains Passages (prochaines 24 heures)

TLE

FraisSource: Space-Track

Époque: Sep 14, 2026, 02:22 UTC

1 04686U 70025BK  26257.09903277  .00000478  00000-0  72525-3 0  9990
2 04686 100.2051   3.9370 0035586 245.4646 292.2378 13.58060650782773

Suivez THORAD AGENA D DEB en temps réel avec AllMySat

Download on the App Store